Date String (YYYY-MM-DD hh:mm:ss) UTC,Instrument flags,Ambient pressure (hPa),Sample flow (lpm),Bypass flow (lpm),Sample temperature (°C),Ambient temperature (°C),ASC tube jacket temperature (°C),LED temperature (°C),Box temperature (°C),Sample RH (%),Span deviation,Mass concentration (μg/m³),Mass concentration (μg/m³),Mass concentration (μg/m³)
DateTimeUTC,F1_M11,P_M11,Q1_M11,Q2_M11,T1_M11,T2_M11,T3_M11,T4_M11,T5_M11,U1_M11,ZSPAN_M11,X2_M11,X0_M11,X1_M11
2023-02-23 21:00:00,,0822.4,5.00,0.00,22.4,20.6,00.0,31.2,24.0,03.8,0000.0,0004.15,0008.62,0003.83
2023-02-23 21:01:00,,0822.4,5.01,0.00,22.3,20.6,00.0,31.2,24.0,03.8,0000.0,0004.18,0009.66,0003.84
2023-02-23 21:02:00,,0822.3,5.00,0.00,22.3,20.9,00.0,31.2,24.0,03.8,0000.0,0004.18,0009.63,0003.83
2023-02-23 21:03:00,,0822.2,4.97,0.00,22.4,22.1,00.0,31.2,24.3,03.8,0000.0,0004.17,0009.38,0003.83
2023-02-23 21:04:00,,0822.2,5.00,0.00,22.6,22.9,00.0,31.2,24.5,03.8,0000.0,0004.19,0009.45,0003.84
2023-02-23 21:05:00,,0822.3,4.98,0.00,22.6,22.5,00.0,31.2,24.4,03.8,0000.0,0004.18,0009.27,0003.84
2023-02-23 21:06:00,,0822.3,4.97,0.00,22.6,22.1,00.0,31.2,24.3,03.7,0000.0,0004.19,0008.81,0003.85
2023-02-23 21:07:00,,0822.3,4.99,0.00,22.6,21.7,00.0,31.2,24.3,03.7,0000.0,0004.18,0008.69,0003.85
2023-02-23 21:08:00,,0822.3,5.00,0.00,22.6,21.4,00.0,31.2,24.2,03.8,0000.0,0004.15,0008.42,0003.83
2023-02-23 21:09:00,,0822.2,5.00,0.00,22.5,21.2,00.0,31.2,24.2,03.8,0000.0,0004.12,0008.27,0003.81
2023-02-23 21:10:00,,0822.3,4.99,0.00,22.5,21.1,00.0,31.2,24.1,03.8,0000.0,0004.05,0008.65,0003.78
2023-02-23 21:11:00,,0822.2,4.99,0.00,22.5,20.9,00.0,31.2,24.1,03.8,0000.0,0004.03,0008.71,0003.76
2023-02-23 21:12:00,,0822.1,5.00,0.00,22.4,20.9,00.0,31.2,24.1,03.8,0000.0,0003.99,0007.63,0003.74
2023-02-23 21:13:00,,0822.1,5.01,0.00,22.4,20.8,00.0,31.2,24.0,03.9,0000.0,0003.99,0007.61,0003.73
2023-02-23 21:14:00,,0822.1,5.00,0.00,22.4,20.7,00.0,31.2,24.0,03.9,0000.0,0003.99,0007.60,0003.72
2023-02-23 21:15:00,,0822.3,4.99,0.00,22.4,20.7,00.0,31.2,24.0,03.8,0000.0,0003.98,0007.56,0003.70
2023-02-23 21:16:00,,0822.4,5.02,0.00,22.4,21.0,00.0,31.2,24.0,03.8,0000.0,0003.97,0007.54,0003.69
2023-02-23 21:17:00,,0822.4,5.01,0.00,22.5,22.2,00.0,31.2,24.3,03.8,0000.0,0003.98,0007.61,0003.68
2023-02-23 21:18:00,,0822.3,5.01,0.00,22.6,22.9,00.0,31.2,24.5,03.9,0000.0,0003.96,0007.96,0003.66
2023-02-23 21:19:00,,0822.3,4.98,0.00,22.6,22.4,00.0,31.2,24.5,03.9,0000.0,0003.95,0007.99,0003.65
2023-02-23 21:20:00,,0822.4,5.00,0.00,22.6,22.0,00.0,31.2,24.4,03.9,0000.0,0003.94,0008.77,0003.64
2023-02-23 21:21:00,,0822.4,4.99,0.00,22.6,21.7,00.0,31.3,24.3,03.9,0000.0,0003.96,0008.43,0003.64
2023-02-23 21:22:00,,0822.3,5.00,0.00,22.6,21.5,00.0,31.3,24.3,03.9,0000.0,0003.98,0007.98,0003.65
2023-02-23 21:23:00,,0822.3,5.00,0.00,22.6,21.3,00.0,31.3,24.2,03.9,0000.0,0003.98,0008.00,0003.63
2023-02-23 21:24:00,,0822.3,5.00,0.00,22.6,21.1,00.0,31.3,24.2,03.9,0000.0,0003.97,0008.00,0003.63
2023-02-23 21:25:00,,0822.3,5.02,0.00,22.5,21.1,00.0,31.3,24.2,03.8,0000.0,0003.96,0008.00,0003.62
2023-02-23 21:26:00,,0822.4,5.00,0.00,22.5,21.0,00.0,31.3,24.2,03.8,0000.0,0003.96,0008.34,0003.62
2023-02-23 21:27:00,,0822.3,4.99,0.00,22.5,20.9,00.0,31.3,24.1,03.8,0000.0,0003.97,0008.38,0003.61
2023-02-23 21:28:00,,0822.3,5.00,0.00,22.5,20.9,00.0,31.3,24.1,03.8,0000.0,0003.94,0008.31,0003.61
2023-02-23 21:29:00,,0822.4,5.00,0.00,22.5,20.8,00.0,31.2,24.1,03.8,0000.0,0003.92,0007.92,0003.61
2023-02-23 21:30:00,,0822.4,5.00,0.00,22.4,20.8,00.0,31.2,24.1,03.9,0000.0,0003.93,0008.12,0003.62
2023-02-23 21:31:00,,0822.4,5.00,0.00,22.5,21.3,00.0,31.2,24.2,03.9,0000.0,0003.92,0007.46,0003.61
2023-02-23 21:32:00,,0822.3,5.03,0.00,22.6,22.4,00.0,31.2,24.5,03.9,0000.0,0003.93,0007.74,0003.62
2023-02-23 21:33:00,,0822.4,4.99,0.00,22.7,23.4,00.0,31.2,24.7,03.8,0000.0,0003.92,0007.91,0003.61
2023-02-23 21:34:00,,0822.4,5.01,0.00,22.8,23.3,00.0,31.3,24.8,03.8,0000.0,0003.96,0008.20,0003.63
2023-02-23 21:35:00,,0822.4,4.99,0.00,22.8,22.7,00.0,31.3,24.6,03.8,0000.0,0003.96,0008.20,0003.64
2023-02-23 21:36:00,,0822.4,4.99,0.00,22.8,22.2,00.0,31.3,24.5,03.8,0000.0,0004.00,0008.31,0003.66
2023-02-23 21:37:00,,0822.4,4.97,0.00,22.7,21.8,00.0,31.3,24.4,03.8,0000.0,0004.02,0008.05,0003.68
2023-02-23 21:38:00,,0822.4,5.00,0.00,22.7,21.4,00.0,31.3,24.3,03.8,0000.0,0004.04,0008.06,0003.69
2023-02-23 21:39:00,,0822.4,4.98,0.00,22.7,21.2,00.0,31.3,24.3,03.9,0000.0,0004.05,0008.42,0003.71
2023-02-23 21:40:00,,0822.4,5.00,0.00,22.6,21.1,00.0,31.3,24.3,03.8,0000.0,0004.07,0008.59,0003.72
2023-02-23 21:41:00,,0822.4,4.98,0.00,22.6,21.0,00.0,31.3,24.3,03.8,0000.0,0004.11,0008.41,0003.74
2023-02-23 21:42:00,,0822.4,5.01,0.00,22.6,20.9,00.0,31.3,24.2,03.8,0000.0,0004.11,0008.31,0003.74
2023-02-23 21:43:00,,0822.4,5.01,0.00,22.6,20.9,00.0,31.3,24.2,03.9,0000.0,0004.10,0008.30,0003.75
2023-02-23 21:44:00,,0822.4,5.01,0.00,22.5,20.9,00.0,31.3,24.2,03.9,0000.0,0004.10,0008.12,0003.76
2023-02-23 21:45:00,,0822.4,5.00,0.00,22.5,20.9,00.0,31.3,24.2,03.9,0000.0,0004.06,0007.76,0003.76
2023-02-23 21:46:00,,0822.4,5.00,0.00,22.5,20.8,00.0,31.3,24.2,03.9,0000.0,0004.08,0007.75,0003.76
2023-02-23 21:47:00,,0822.4,4.96,0.00,22.5,20.8,00.0,31.3,24.2,03.9,0000.0,0004.07,0007.71,0003.76
2023-02-23 21:48:00,,0822.4,5.00,0.00,22.5,20.8,00.0,31.3,24.1,03.9,0000.0,0004.04,0007.63,0003.75
2023-02-23 21:49:00,,0822.4,5.00,0.00,22.5,20.8,00.0,31.3,24.1,03.9,0000.0,0004.01,0008.00,0003.75
2023-02-23 21:50:00,,0822.4,4.99,0.00,22.5,21.1,00.0,31.3,24.2,03.9,0000.0,0004.02,0008.13,0003.74
2023-02-23 21:51:00,,0822.4,5.00,0.00,22.5,22.2,00.0,31.2,24.4,03.9,0000.0,0004.05,0007.94,0003.74
2023-02-23 21:52:00,,0822.4,4.98,0.00,22.7,23.0,00.0,31.3,24.6,03.8,0000.0,0004.05,0007.94,0003.74
2023-02-23 21:53:00,,0822.4,5.00,0.00,22.7,22.6,00.0,31.3,24.6,03.9,0000.0,0004.09,0008.02,0003.75
2023-02-23 21:54:00,,0822.4,4.98,0.00,22.7,22.2,00.0,31.3,24.5,03.9,0000.0,0004.12,0007.85,0003.76
2023-02-23 21:55:00,,0822.4,5.00,0.00,22.7,21.9,00.0,31.3,24.4,03.9,0000.0,0004.13,0007.87,0003.78
2023-02-23 21:56:00,,0822.4,4.97,0.00,22.7,21.7,00.0,31.3,24.4,03.9,0000.0,0004.14,0008.04,0003.78
2023-02-23 21:57:00,,0822.4,4.96,0.00,22.7,21.5,00.0,31.3,24.4,03.9,0000.0,0004.15,0008.88,0003.79
2023-02-23 21:58:00,,0822.4,4.97,0.00,22.6,21.3,00.0,31.4,24.3,04.0,0000.0,0004.16,0008.88,0003.80
2023-02-23 21:59:00,,0822.4,5.00,0.00,22.6,21.2,00.0,31.3,24.3,03.9,0000.0,0004.17,0008.87,0003.81
